Scottsbluff, NE

1:10 AM MDT on October 15, 2019 (GMT -0600)
Heilig

Weather History for KBFF - August, 2019

Change the Weather History Date:

Friday, August 30, 2019

  Actual Average Record
Temperature  
Mean Temperature 70 °F -  
Max Temperature 82 °F 86 °F 102 °F (1990)
Min Temperature 57 °F 54 °F 37 °F (1964)
Cooling Degree Days 4    
Growing Degree Days 20 (Base 50)    
Moisture  
Dew Point 57 °F    
Average Humidity 73    
Maximum Humidity 96    
Minimum Humidity 43    
Precipitation  
Precipitation 0.02 in - - ()
Sea Level Pressure  
Sea Level Pressure 30.05 in    
Wind  
Wind Speed 10 mph (ESE)    
Max Wind Speed 21 mph    
Max Gust Speed 26 mph    
Visibility 10 miles    
Events Rain , Thunderstorm    
Averages and records for this station are not official NWS values.
T = Trace of Precipitation, MM = Missing Value Source: NWS Daily Summary

Daily Weather History Graph

Daily Weather History Graph

Search for Another Location

Airport or City:

Astronomy

Aug. 30, 2019 Rise Set
Actual Time 6:17 AM MDT 7:31 PM MDT
Civil Twilight 5:49 AM MDT 8:00 PM MDT
Nautical Twilight 5:14 AM MDT 8:34 PM MDT
Astronomical Twilight 4:38 AM MDT 9:10 PM MDT
Moon 6:20 AM MDT (8/30) 8:09 PM MDT (8/30)
Length of Visible Light 14h 11m
Length of Day
13h 13m
New Moon, 0% of the Moon is Illuminated
Aug 30
New Moon
Sep 5
First Quarter
Sep 13
Full
Sep 21
Last Quarter
Sep 28
New

Hourly Weather History & Observations

Time (MDT) Temp. Heat Index Dew Point Humidity Pressure Visibility Wind Dir Wind Speed Gust Speed Precip Events Conditions
12:53 AM 55.0 °F - 50.0 °F 83% 30.07 in 10.0 mi East 6.9 mph - N/A   Clear
1:53 AM 54.0 °F - 48.9 °F 83% 30.06 in 10.0 mi East 6.9 mph - N/A   Clear
2:53 AM 54.0 °F - 48.9 °F 83% 30.06 in 10.0 mi SSE 3.5 mph - N/A   Clear
3:53 AM 54.0 °F - 48.9 °F 83% 30.07 in 10.0 mi East 5.8 mph - N/A   Clear
4:53 AM 55.0 °F - 50.0 °F 83% 30.08 in 10.0 mi ESE 6.9 mph - N/A   Mostly Cloudy
5:53 AM 57.0 °F - 51.1 °F 81% 30.08 in 10.0 mi ESE 9.2 mph - N/A   Overcast
6:53 AM 59.0 °F - 51.1 °F 75% 30.07 in 10.0 mi ESE 16.1 mph - N/A   Mostly Cloudy
7:53 AM 60.1 °F - 51.1 °F 72% 30.09 in 10.0 mi ESE 11.5 mph - N/A   Partly Cloudy
8:53 AM 62.1 °F - 51.1 °F 67% 30.09 in 10.0 mi SE 15.0 mph - N/A   Clear
9:53 AM 64.0 °F - 51.1 °F 63% 30.10 in 10.0 mi ESE 11.5 mph - 0.00 in   Scattered Clouds
10:53 AM 66.9 °F - 52.0 °F 59% 30.07 in 10.0 mi SE 15.0 mph - 0.00 in Rain Light Rain
11:53 AM 72.0 °F - 54.0 °F 53% 30.05 in 10.0 mi SE 13.8 mph - 0.00 in   Mostly Cloudy
12:53 PM 75.9 °F - 57.0 °F 52% 30.02 in 10.0 mi SE 16.1 mph 25.3 mph N/A   Partly Cloudy
1:53 PM 77.0 °F - 57.0 °F 50% 30.00 in 10.0 mi ESE 19.6 mph 26.5 mph N/A   Clear
2:53 PM 78.1 °F - 57.9 °F 50% 29.98 in 10.0 mi ESE 20.7 mph 26.5 mph N/A   Clear
3:53 PM 82.0 °F 82.1 °F 59.0 °F 45% 29.94 in 10.0 mi ESE 18.4 mph 26.5 mph N/A   Clear
4:53 PM 79.0 °F - 59.0 °F 50% 29.93 in 10.0 mi ESE 15.0 mph - N/A   Clear
5:53 PM 73.9 °F - 62.1 °F 66% 29.99 in 10.0 mi East 9.2 mph - 0.00 in Rain Light Rain
6:53 PM 73.0 °F - 62.1 °F 68% 29.96 in 10.0 mi SE 12.7 mph - 0.00 in   Clear
7:53 PM 70.0 °F - 62.1 °F 76% 29.96 in 10.0 mi ESE 12.7 mph - 0.00 in   Clear
8:53 PM 66.9 °F - 62.1 °F 84% 30.01 in 10.0 mi East 8.1 mph - N/A   Mostly Cloudy
9:40 PM 66.0 °F - 64.0 °F 93% 30.19 in 10.0 mi NE 8.1 mph - 0.02 in Rain , Thunderstorm Light Rain
9:50 PM 66.2 °F - 62.6 °F 88% 30.18 in 10.0 mi East 13.8 mph - 0.02 in   Mostly Cloudy
9:53 PM 66.0 °F - 63.0 °F 90% 30.08 in 10.0 mi East 13.8 mph - 0.02 in   Scattered Clouds
10:53 PM 64.9 °F - 63.0 °F 93% 30.08 in 10.0 mi ESE 11.5 mph - N/A   Clear
11:42 PM 64.0 °F - 63.0 °F 96% 30.15 in 6.0 mi SSE 13.8 mph - N/A   Partly Cloudy
11:53 PM 64.0 °F - 63.0 °F 96% 30.04 in 7.0 mi SE 11.5 mph - N/A   Clear